[[{"header":{"parameterUnit":"m.s-1","parameterCategory":1,"la1":30.2991,"la2":30.254,"lo1":-89.0895,"lo2":-89.0444,"dy":0.0017,"dx":0.0017,"nx":28,"ny":28,"refTime":"2024-08-21T21:00:00:Z","depth":0,"parameterNumber":2,"parameterNumberName":"U-component_of_WINDS"},"data":[0,0,0,0,0,0,0,0,0,0,0,0,0,0,0,0,0,0,0,0,0,0,0,0,0,0,0,0,0,0,0,0,0,0,0,0,0,0,0,0,0,0,0,0,0,0,0,0,0,0,0,0,0,0,0,0,0,0,-5.1934,-5.1935,0,-5.2064,-5.2065,-5.2067,-5.1942,-5.1937,-5.1932,-5.1928,-5.2061,-5.2069,-5.2077,0,0,0,0,0,0,0,0,0,0,0,0,0,-5.1577,-5.1584,-5.1933,-5.1935,-5.1937,-5.2063,-5.2065,-5.2067,-5.1943,-5.1937,-5.1931,-5.1925,-5.2058,-5.2068,-5.2078,0,0,0,0,0,0,0,0,0,0,0,0,0,-5.1722,-5.1586,-5.1933,-5.189,-5.1888,-5.2063,-5.2065,-5.2067,-5.1944,-5.1937,-5.1929,-5.1922,-5.2055,-5.2067,-5.2079,-5.2303,0,0,-5.2116,-5.2122,0,0,0,0,0,0,0,0,-5.1714,-5.1735,-5.1895,-5.1893,-5.1891,-5.1979,-5.1988,-5.2147,-5.1946,-5.1923,-5.1927,-5.1919,-5.204,-5.2053,-5.2093,-5.231,-5.2315,-5.2117,-5.2125,-5.213,-5.2134,0,0,0,0,0,0,0,-5.1704,-5.1729,-5.1985,-5.1897,-5.1895,-5.1864,-5.1876,-5.2018,-5.2021,-5.1924,-5.1916,-5.1933,-5.2037,-5.2082,-5.2096,-5.2317,-5.2117,-5.2128,-5.2136,-5.214,-5.2723,-5.2731,0,0,0,0,0,0,-5.1698,-5.1721,-5.1981,-5.1989,-5.1782,-5.1877,-5.189,-5.1958,-5.2019,-5.2022,-5.1939,-5.1926,-5.2065,-5.2081,-5.21,-5.2366,-5.213,-5.2142,-5.2149,-5.2715,-5.2725,-5.2733,0,0,0,0,0,0,-5.1691,-5.1723,-5.1976,-5.1853,-5.1882,-5.1891,-5.1968,-5.1965,-5.2009,-5.2031,-5.203,-5.1984,-5.2059,-5.2083,-5.2253,-5.2369,-5.2147,-5.2158,-5.2705,-5.2718,-5.2729,-5.29,0,0,0,0,0,0,-5.1682,-5.1721,-5.1807,-5.1856,-5.189,-5.2128,-5.1975,-5.1973,-5.2031,-5.2016,-5.2073,-5.2075,-5.2055,-5.2236,-5.2266,-5.2381,-5.2168,-5.2695,-5.2711,-5.2725,-5.2884,-5.2917,-5.2944,0,0,0,0,0,-5.1669,-5.185,-5.1812,-5.1844,-5.1997,-5.2135,-5.2154,-5.2128,-5.2041,-5.2127,-5.214,-5.2073,-5.2351,-5.2254,-5.2287,-5.2408,-5.2688,-5.2706,-5.2724,-5.2871,-5.291,-5.2944,0,0,0,0,0,0,-5.1814,-5.1856,-5.1814,-5.2016,-5.2073,-5.2113,-5.2221,-5.2171,-5.2253,-5.2236,-5.2199,-5.2213,-5.2394,-5.2418,-5.2309,-5.2628,-5.2505,-5.2531,-5.2606,-5.2643,-5.2673,-5.2663,-5.2178,0,0,0,0,0,-5.187,-5.1979,-5.2009,-5.2184,-5.2215,-5.2214,-5.2272,-5.2247,-5.2305,-5.2328,-5.2354,-5.2412,-5.2512,-5.2579,-5.2673,-5.2887,-5.2897,-5.2987,-5.3017,-5.3041,-5.3064,-5.3178,-5.3218,-5.2794,-5.2793,-5.2793,0,0,-5.1986,-5.2022,-5.2092,-5.2214,-5.2255,-5.2368,-5.2234,-5.236,-5.2443,-5.2347,-5.2509,-5.2531,-5.2593,-5.2787,-5.2873,-5.2813,-5.3183,-5.3065,-5.3084,-5.3093,-5.3201,-5.3241,-5.3277,-5.2806,-5.2804,-5.2802,0,0,-5.2254,-5.2293,-5.2442,-5.2486,-5.255,-5.2548,-5.2584,-5.2633,-5.2643,-5.2806,-5.2736,-5.2834,-5.3008,-5.3055,-5.3102,-5.3388,-5.333,-5.342,-5.3577,-5.3689,-5.3722,-5.3751,-5.3852,-5.3889,-5.3442,-5.3443,-5.3443,0,-5.239,-5.2557,-5.2526,-5.2656,-5.2711,-5.2629,-5.278,-5.2824,-5.2916,-5.2956,-5.2886,-5.3102,-5.3139,-5.3341,-5.3411,-5.3452,-5.3491,-5.3413,-5.372,-5.3749,-5.3776,-5.3872,-5.391,-5.3453,-5.3452,-5.3451,-5.345,0,-5.272,-5.2838,-5.2951,-5.3041,-5.3109,-5.3249,-5.3238,-5.3311,-5.328,-5.3285,-5.3451,-5.3492,-5.3592,-5.3638,-5.3609,-5.3837,-5.3797,-5.3725,-5.3601,-5.3827,-5.3917,-5.3953,-5.3468,-5.3464,-5.3461,-5.3459,0,0,-5.3084,-5.3154,-5.3196,-5.3236,-5.33,-5.339,-5.3527,-5.3624,-5.3687,-5.3753,-5.3865,-5.4014,-5.3947,-5.4,-5.3976,-5.4074,-5.4297,-5.3989,-5.399,-5.4044,-5.4549,-5.4603,-5.4646,-5.4259,-5.4265,-5.4271,-5.4544,0,-5.3353,-5.359,-5.3565,-5.379,-5.3897,-5.3821,-5.394,-5.3992,-5.4,-5.4092,-5.4101,-5.4207,-5.4111,-5.4143,-5.4237,-5.425,-5.4398,-5.423,-5.4362,-5.4368,-5.4348,-5.4693,-5.475,-5.5006,-5.4579,-5.4585,-5.4589,0,-5.3699,-5.3777,-5.4013,-5.406,-5.4105,-5.4212,-5.4298,-5.4388,-5.4445,-5.4444,-5.4504,-5.4462,-5.4598,-5.4472,-5.4659,-5.4545,-5.4598,-5.4613,-5.4622,-5.4633,-5.4492,-5.4712,-5.5087,-5.5125,-5.4644,-5.464,-5.4636,0,-5.3939,-5.4103,-5.4265,-5.4302,-5.4361,-5.4438,-5.4466,-5.4516,-5.4577,-5.4653,-5.4691,-5.4782,-5.4832,-5.4904,-5.4888,-5.4797,-5.5079,-5.4951,-5.5081,-5.5082,-5.5143,-5.5139,-5.553,-5.5179,-5.5178,-5.5178,-5.5177,0,-5.4243,-5.439,-5.4374,-5.4473,-5.4636,-5.4606,-5.4767,-5.4785,-5.4831,-5.4932,-5.4872,-5.4969,-5.4942,-5.5037,-5.5026,-5.5181,-5.5205,-5.5207,-5.5202,-5.5212,-5.5212,-5.5246,-5.5227,-5.5188,-5.5186,-5.5184,-5.5182,0,-5.4538,-5.4533,-5.4704,-5.4747,-5.4761,-5.4879,-5.4914,-5.5008,-5.5011,-5.5141,-5.5169,-5.5175,-5.5284,-5.5275,-5.5398,-5.539,-5.5583,-5.5557,-5.5563,-5.5557,-5.5688,-5.5675,-5.6113,-5.6169,-5.5783,-5.5787,-5.579,0,-5.4731,-5.4842,-5.4896,-5.496,-5.4994,-5.5097,-5.5158,-5.5133,-5.5198,-5.5272,-5.5357,-5.546,-5.5542,-5.5719,-5.5734,-5.5828,-5.5803,-5.5951,-5.5817,-5.5823,-5.5804,-5.5797,-5.5808,-5.5977,-5.5981,-5.5984,-5.5987,0,-5.5074,-5.5066,-5.5156,-5.5246,-5.532,-5.539,-5.5453,-5.5508,-5.5489,-5.5566,-5.5677,-5.574,-5.5865,-5.5969,-5.6058,-5.6086,-5.6034,-5.603,-5.6064,-5.6075,-5.6074,-5.6075,-5.5634,-5.6019,-5.6016,-5.6014,-5.6012,-5.6011,-5.5323,-5.5418,-5.5471,-5.5573,-5.5618,-5.5678,-5.5768,-5.5783,-5.5875,-5.5974,-5.5954,-5.6078,-5.6132,-5.6246,-5.6284,-5.638,-5.6327,-5.6378,-5.639,-5.6403,-5.6418,-5.6059,-5.6396,-5.6395,-5.6395,-5.6394,-5.6393,0,-5.5662,-5.5692,-5.5786,-5.5876,-5.5957,-5.5901,-5.5968,-5.6039,-5.6149,-5.6204,-5.6285,-5.6412,-5.6512,-5.6535,-5.663,-5.6703,-5.6682,-5.6729,-5.6723,-5.673,-5.646,-5.642,-5.6745,-5.6745,-5.6745,-5.6745,-5.6744,-5.6744,-5.5847,-5.6004,-5.6003,-5.6182,-5.6211,-5.6332,-5.6375,-5.643,-5.6473,-5.6618,-5.6701,-5.6715,-5.6757,-5.6855,-5.6944,-5.6948,-5.6985,-5.7042,-5.7037,-5.6784,-5.6749,-5.6716,-5.6677,-5.7051,-5.7051,-5.7298,-5.7301,-5.7302]},{"header":{"parameterUnit":"m.s-1","parameterCategory":1,"la1":30.2991,"la2":30.254,"lo1":-89.0895,"lo2":-89.0444,"dy":0.0017,"dx":0.0017,"nx":28,"ny":28,"refTime":"2024-08-21T21:00:00:Z","depth":0,"parameterNumber":3,"parameterNumberName":"V-component_of_WINDS"},"data":[0,0,0,0,0,0,0,0,0,0,0,0,0,0,0,0,0,0,0,0,0,0,0,0,0,0,0,0,0,0,0,0,0,0,0,0,0,0,0,0,0,0,0,0,0,0,0,0,0,0,0,0,0,0,0,0,0,0,-2.4422,-2.4422,0,-2.4399,-2.4399,-2.4398,-2.4355,-2.4354,-2.4353,-2.4353,-2.4329,-2.4329,-2.4329,0,0,0,0,0,0,0,0,0,0,0,0,0,-2.4428,-2.4428,-2.4422,-2.4422,-2.4422,-2.4399,-2.4399,-2.4398,-2.4355,-2.4354,-2.4353,-2.4352,-2.4328,-2.4329,-2.4329,0,0,0,0,0,0,0,0,0,0,0,0,0,-2.4417,-2.4428,-2.4422,-2.4397,-2.4395,-2.4399,-2.4399,-2.4398,-2.4356,-2.4354,-2.4353,-2.4352,-2.4328,-2.4329,-2.4329,-2.4355,0,0,-2.4329,-2.4329,0,0,0,0,0,0,0,0,-2.4418,-2.4417,-2.4401,-2.4399,-2.4396,-2.4379,-2.4392,-2.4384,-2.4356,-2.4371,-2.4353,-2.4351,-2.4346,-2.4345,-2.4343,-2.4354,-2.4353,-2.4329,-2.433,-2.433,-2.433,0,0,0,0,0,0,0,-2.4419,-2.4418,-2.4413,-2.4401,-2.4398,-2.4387,-2.4384,-2.439,-2.4366,-2.4369,-2.4366,-2.4364,-2.4345,-2.4343,-2.4342,-2.4352,-2.4329,-2.433,-2.433,-2.433,-2.4381,-2.4382,0,0,0,0,0,0,-2.4423,-2.4419,-2.4414,-2.4412,-2.4404,-2.4388,-2.4385,-2.4386,-2.4365,-2.4361,-2.4365,-2.4362,-2.4343,-2.4342,-2.4341,-2.4368,-2.433,-2.433,-2.433,-2.4379,-2.4381,-2.4382,0,0,0,0,0,0,-2.4424,-2.4423,-2.4415,-2.4415,-2.4413,-2.4389,-2.4391,-2.4386,-2.4384,-2.4362,-2.4358,-2.4368,-2.4342,-2.4341,-2.4351,-2.4367,-2.433,-2.433,-2.4378,-2.438,-2.4382,-2.4425,0,0,0,0,0,0,-2.4424,-2.4424,-2.4434,-2.4415,-2.4413,-2.4426,-2.4392,-2.4386,-2.4385,-2.4381,-2.4364,-2.436,-2.4341,-2.4351,-2.4352,-2.4367,-2.433,-2.4376,-2.4379,-2.4381,-2.4422,-2.4428,-2.4433,0,0,0,0,0,-2.4424,-2.4447,-2.4435,-2.4434,-2.4425,-2.4427,-2.4425,-2.4404,-2.4386,-2.4396,-2.4381,-2.436,-2.4366,-2.4353,-2.4353,-2.4368,-2.4375,-2.4378,-2.4381,-2.4419,-2.4427,-2.4433,0,0,0,0,0,0,-2.4469,-2.4444,-2.443,-2.4448,-2.444,-2.4419,-2.4431,-2.4412,-2.4409,-2.4405,-2.4378,-2.4375,-2.4388,-2.4379,-2.4365,-2.4391,-2.4367,-2.437,-2.4396,-2.4403,-2.4409,-2.441,-2.433,0,0,0,0,0,-2.4481,-2.4484,-2.4463,-2.4481,-2.4477,-2.4455,-2.4455,-2.4439,-2.4429,-2.4425,-2.4412,-2.4403,-2.4402,-2.4402,-2.4401,-2.4421,-2.4415,-2.4431,-2.4437,-2.4441,-2.4444,-2.4451,-2.4457,-2.4391,-2.4391,-2.4391,0,0,-2.4505,-2.4492,-2.4496,-2.4489,-2.4481,-2.4484,-2.4452,-2.4458,-2.446,-2.4426,-2.4434,-2.4424,-2.4412,-2.4427,-2.4433,-2.442,-2.4461,-2.4445,-2.4449,-2.4449,-2.4455,-2.4461,-2.4467,-2.4393,-2.4393,-2.4393,0,0,-2.4551,-2.4543,-2.4555,-2.4548,-2.4535,-2.452,-2.4523,-2.4505,-2.4497,-2.4505,-2.4479,-2.4481,-2.4481,-2.4473,-2.4469,-2.451,-2.449,-2.4511,-2.454,-2.4547,-2.4553,-2.4557,-2.457,-2.4575,-2.4514,-2.4514,-2.4514,0,-2.4583,-2.4588,-2.4564,-2.4571,-2.4568,-2.4537,-2.4549,-2.4542,-2.453,-2.4528,-2.4515,-2.4512,-2.4503,-2.4514,-2.4524,-2.4522,-2.4524,-2.4512,-2.4554,-2.4558,-2.4562,-2.4574,-2.4579,-2.4516,-2.4516,-2.4516,-2.4515,0,-2.4626,-2.463,-2.4642,-2.463,-2.4628,-2.4638,-2.4615,-2.4616,-2.4599,-2.4585,-2.4593,-2.458,-2.4574,-2.4576,-2.4561,-2.4584,-2.4576,-2.4559,-2.4534,-2.4571,-2.4581,-2.4586,-2.452,-2.4519,-2.4518,-2.4517,0,0,-2.47,-2.4674,-2.4679,-2.4672,-2.4655,-2.4657,-2.4665,-2.4659,-2.4659,-2.4652,-2.4656,-2.4656,-2.4639,-2.4635,-2.4618,-2.4625,-2.4656,-2.4606,-2.4605,-2.4614,-2.4679,-2.4691,-2.4697,-2.4643,-2.4644,-2.4644,-2.4679,0,-2.4741,-2.4752,-2.473,-2.4746,-2.4748,-2.4718,-2.4724,-2.4714,-2.4701,-2.47,-2.4686,-2.4685,-2.4664,-2.4661,-2.4666,-2.4651,-2.4668,-2.4648,-2.4645,-2.4645,-2.4647,-2.4703,-2.4716,-2.4749,-2.4683,-2.4684,-2.4684,0,-2.479,-2.4784,-2.48,-2.4781,-2.4781,-2.4787,-2.4778,-2.4778,-2.4766,-2.4756,-2.475,-2.473,-2.4735,-2.4712,-2.4717,-2.4704,-2.4701,-2.4693,-2.4694,-2.4692,-2.4666,-2.47,-2.4759,-2.4764,-2.4691,-2.4691,-2.469,0,-2.4839,-2.4835,-2.4844,-2.4839,-2.4818,-2.4822,-2.4813,-2.48,-2.4797,-2.479,-2.4787,-2.4781,-2.4777,-2.4773,-2.4751,-2.4737,-2.4758,-2.4734,-2.4748,-2.4749,-2.4753,-2.4753,-2.4811,-2.4755,-2.4755,-2.4755,-2.4754,0,-2.4886,-2.4896,-2.4865,-2.487,-2.488,-2.4855,-2.4866,-2.4854,-2.4842,-2.4843,-2.4818,-2.482,-2.4792,-2.479,-2.4774,-2.4779,-2.4778,-2.4769,-2.4764,-2.4771,-2.4771,-2.4767,-2.4764,-2.4756,-2.4756,-2.4755,-2.4755,0,-2.4942,-2.4922,-2.4929,-2.4907,-2.4902,-2.491,-2.4892,-2.4895,-2.488,-2.4882,-2.4881,-2.4857,-2.4854,-2.4832,-2.4825,-2.4813,-2.4824,-2.4816,-2.4828,-2.4825,-2.484,-2.4838,-2.4896,-2.4902,-2.4844,-2.4844,-2.4845,0,-2.4973,-2.498,-2.4959,-2.4958,-2.495,-2.4949,-2.4946,-2.4921,-2.4919,-2.4904,-2.4909,-2.4903,-2.4897,-2.4893,-2.4875,-2.4868,-2.4858,-2.4879,-2.4857,-2.4862,-2.4856,-2.4855,-2.4855,-2.4883,-2.4884,-2.4885,-2.4885,0,-2.5028,-2.5017,-2.5014,-2.5006,-2.5003,-2.4995,-2.4987,-2.4987,-2.496,-2.4958,-2.4954,-2.495,-2.4941,-2.4935,-2.4925,-2.4915,-2.4895,-2.4893,-2.4895,-2.4901,-2.4907,-2.4902,-2.4839,-2.4891,-2.4891,-2.489,-2.489,-2.489,-2.5071,-2.5075,-2.506,-2.5056,-2.5047,-2.5039,-2.504,-2.5025,-2.5022,-2.5012,-2.4998,-2.4996,-2.4982,-2.4966,-2.4957,-2.4955,-2.4943,-2.4948,-2.4948,-2.4949,-2.4952,-2.4909,-2.4953,-2.4953,-2.4953,-2.4952,-2.4952,0,-2.5123,-2.5112,-2.5109,-2.5097,-2.5093,-2.5075,-2.5064,-2.5062,-2.5061,-2.5049,-2.5044,-2.5038,-2.5032,-2.5013,-2.5005,-2.5006,-2.4997,-2.5005,-2.5004,-2.5001,-2.4963,-2.4961,-2.5013,-2.5013,-2.5013,-2.5012,-2.5012,-2.5012,-2.515,-2.5155,-2.5142,-2.5142,-2.5131,-2.5128,-2.5123,-2.5115,-2.5105,-2.51,-2.5095,-2.5083,-2.5068,-2.5058,-2.5051,-2.5046,-2.5043,-2.5054,-2.5045,-2.501,-2.5004,-2.4999,-2.4996,-2.5054,-2.5054,-2.5083,-2.5083,-2.5083]}]]